Regional Weather Roundup
Issued by NWS

Home | Current Version | Previous Version | Text Only | Print | Product List | Glossary On
Versions: 1 2 3 4 5 6 7 8 9 10 11 12 13 14 15 16 17 18 19 20 21 22 23 24 25 26 27 28 29 30 31 32 33 34 35 36 37 38 39 40 41 42 43 44 45 46 47 48 49 50
000
ASUS42 KFFC 292110
RWRGA
WEATHER ROUNDUP FOR GEORGIA
NATIONAL WEATHER SERVICE PEACHTREE CITY GA
500 PM EDT SAT AUG 29 2015

NOTE: "FAIR" INDICATES FEW OR NO CLOUDS BELOW 12,000 FEET WITH NO
SIGNIFICANT WEATHER AND/OR OBSTRUCTIONS TO VISIBILITY.

* = USE WITH CAUTION. THE STATIONS MARKED WITH AN ASTERISK MAY NOT
REPORT WEATHER SUCH AS PRECIPITATION, FOG, OR THUNDER AND ARE NOT
QUALITY CONTROLLED BY NWS.

THE REMARK "TC" DENOTES TEMPERATURE READING IN DEGREES CELSIUS.

GAZ001>058-292200-
NORTH GEORGIA

CITY           SKY/WX    TMP DP  RH WIND       PRES   REMARKS
ATLANTA        PTSUNNY   79  67  66 SE7       30.13F
ATHENS         FAIR      82  64  54 E6        30.15F
CHAMBLEE       FAIR      81  66  60 E5        30.13F
PEACHTREE CITY FAIR      75  72  90 E3        30.14S FOG
ROME           FAIR      82  70  66 SE6       30.10S
WEST ATLANTA   PTSUNNY   79  68  69 S5        30.13F
GAINESVILLE    FAIR      79  62  56 E10       30.18F
CARTERSVILLE   FAIR      84  66  54 SE9       30.11F


CITY           SKY/WX    TMP DP  RH WIND       PRES   REMARKS
DALTON*        FAIR      82  63  51 SE10      30.11F
LAWRENCEVILLE* SUNNY     81  63  54 E6        30.15F
MARIETTA       CLOUDY    81  64  57 SE10      30.13F
KENNESAW*      MOSUNNY   82  63  51 MISG      30.14F
BLAIRSVILLE*     N/A     77  28  16 S5        30.19F
$$

GAZ059>098-102>109-292200-
CENTRAL GEORGIA

CITY           SKY/WX    TMP DP  RH WIND       PRES   REMARKS
AUGUSTA-BUSH   FAIR      85  60  42 E8        30.10F
AUGUSTA-DANIEL FAIR      86  58  38 E8        30.13F
COLUMBUS       PTSUNNY   82  68  62 E6        30.08S
MACON          PTSUNNY   80  72  76 NE8       30.11F
ROBINS AFB     FAIR      81  73  75 E7        30.10F


CITY           SKY/WX    TMP DP  RH WIND       PRES   REMARKS
LAGRANGE*      CLOUDY    76  74  92 CALM      30.12S
SYLVANIA*      FAIR      86  72  62 E7        30.11F HX  92
MILLEDGEVILLE* FAIR      81  66  61 CALM      30.12F
$$

GAZ099>101-110>166-292200-
SOUTH GEORGIA

CITY           SKY/WX    TMP DP  RH WIND       PRES   REMARKS
SAVANNAH       PTSUNNY   83  69  62 E10       30.10F
VALDOSTA       FAIR      74  73  97 NE7       30.08F
ALMA           CLOUDY    79  73  82 N8        30.08S
ST SIMONS      PTSUNNY   81  73  76 NE12G21   30.07S
FT STEWART     FAIR      82  71  69 NE8G17    30.07F
ALBANY         FAIR      83  70  64 E5        30.09F
HUNTER AFB     FAIR      81  74  80 E8        30.08F
MOODY AFB      LGT RAIN  72  70  94 NE5       30.08F
BRUNSWICK      FAIR      82  73  74 NE13G20   30.08F


CITY           SKY/WX    TMP DP  RH WIND       PRES   REMARKS
BAINBRIDGE*    PTSUNNY   73  72  94 N3        30.07F
MOULTRIE*      LGT RAIN  75  72  88 E5        30.09F
VIDALIA*       PTSUNNY   79  73  83 NE5       30.10F
WAYCROSS*      FAIR      86  76  72 E6        30.07S HX  97
DOUGLAS*       RAIN      75  73  94 CALM      30.11S
$$


USA.gov is the U.S. government's official web portal to all federal, state and local government web resources and services.